Home   Weather   St. Albert   Past weeks

Flag for Canada Past Weather in St. Albert, Alberta, Canada — Yesterday and Last 2 Weeks

Now
81 °F

Warm.


Feels Like: 82 °F
Forecast: 53 / 73 °F
Wind: 7 mph from Northeast

Location: Edmonton Municipal

Current Time: Jul 27, 2017 at 7:00:34 pm

Latest Report: Jul 27, 2017 at 6:00 pm


Visibility: N/A

Pressure: 29.79 "Hg (27.66 "Hg at 653m altitude)

Humidity: 53%

Dew Point: 62 °F

Location of St. AlbertLocation

Past Weather in St. Albert — Graph

°F

St. Albert Temperature Yesterday

Maximum temperature yesterday: 82 °F (at 5:00 pm)
Minimum temperature yesterday: 53 °F (at 6:00 am)
Average temperature yesterday: 69 °F

High & Low Weather Summary for the Past Weeks

 TemperatureHumidityPressure
High86 °F (Jul 27, 4:00 pm)100% (Jul 24, 1:00 pm)30.16 "Hg (Jul 24, 1:00 pm)
Low48 °F (Jul 25, 6:00 am)29% (Jul 26, 6:00 pm)29.66 "Hg (Jul 16, 3:00 am)
Average64 °F66%29.93 "Hg
* Reported Jul 12 5:00 pm — Jul 27 5:00 pm, St. Albert. Weather by CustomWeather, © 2017

Note: Actual official high and low records may vary slightly from our data, if they occured in-between our weather recording intervals... More about our weather records

Advertising

St. Albert Weather History for the Previous 24 Hours

Scroll right to see more
 ConditionsComfort  
Time TempWeatherWind HumidityBarometerVisibility
5:00 pm
Thu, Jul 27
82 °FWarm.6 mph47%29.80 "HgN/A
4:00 pm86 °FPleasantly warm.2 mph33%29.80 "HgN/A
3:00 pm84 °FPleasantly warm.2 mph38%29.80 "HgN/A
2:00 pm82 °FPleasantly warm.3 mph39%29.82 "HgN/A
1:00 pm79 °FWarm.5 mph47%29.83 "HgN/A
11:00 am75 °FMild.3 mph52%29.85 "HgN/A
10:00 am73 °FMild.1 mph56%29.86 "HgN/A
9:00 am68 °FMild.3 mph60%29.86 "HgN/A
8:00 am66 °FMild.3 mph68%29.87 "HgN/A
7:00 am61 °FCool.2 mph75%29.87 "HgN/A
6:00 am58 °FCool.No wind82%29.88 "HgN/A
5:00 am59 °FCool.3 mph79%29.89 "HgN/A
4:00 am61 °FCool.2 mph76%29.88 "HgN/A
3:00 am62 °FMild.5 mph73%29.90 "HgN/A
2:00 am65 °FMild.6 mph68%29.90 "HgN/A
1:00 am67 °FMild.8 mph63%29.91 "HgN/A
12:00 am70 °FMild.8 mph55%29.91 "HgN/A
11:00 pm
Wed, Jul 26
71 °FMild.8 mph59%29.92 "HgN/A
10:00 pm73 °FMild.8 mph55%29.92 "HgN/A
9:00 pm76 °FMild.8 mph47%29.92 "HgN/A
8:00 pm79 °FPleasantly warm.10 mph35%29.93 "HgN/A
7:00 pm80 °FPleasantly warm.9 mph32%29.94 "HgN/A
Weather by CustomWeather, © 2017

See weather overviewHow to use our weather pages